,,Stat6,,Stat2,,Stat8,,Stat9,,Stat10,,Wind1,,Wind1,
time,status,PA1M_AVG,status,PR1M_SUM,status,RH1M_AVG,status,SR1M_AVG,status,TA1M_AVG,status,W1dAve1m,status,W1sAve1m,
2006-02-19, 00:00:00,VALID,917.842,VALID,0,VALID,100,VALID,-0.0339617,VALID,19.924,VALID,106,VALID,1.43521,
2006-02-19, 00:01:00,VALID,917.829,VALID,0,VALID,100,VALID,-0.0339617,VALID,19.9215,VALID,120,VALID,1.54634,
2006-02-19, 00:02:00,VALID,917.827,VALID,0,VALID,100,VALID,0,VALID,19.8882,VALID,113,VALID,1.484,
2006-02-19, 00:03:00,VALID,917.819,VALID,0,VALID,100,VALID,0.0169808,VALID,19.8755,VALID,118,VALID,1.02562,
2006-02-19, 00:04:00,VALID,917.823,VALID,0,VALID,100,VALID,-0.0339617,VALID,19.8854,VALID,132,VALID,0.703819,
2006-02-19, 00:05:00,VALID,917.815,VALID,0,VALID,100,VALID,0.0169808,VALID,19.8852,VALID,123,VALID,1.02217,
2006-02-19, 00:06:00,VALID,917.818,VALID,0,VALID,100,VALID,0,VALID,19.8882,VALID,118,VALID,0.96218,
2006-02-19, 00:07:00,VALID,917.81,VALID,0,VALID,100,VALID,0.0679233,VALID,19.8882,VALID,132,VALID,0.740091,
2006-02-19, 00:08:00,VALID,917.805,VALID,0,VALID,100,VALID,0.0169808,VALID,19.8941,VALID,102,VALID,0.519531,
2006-02-19, 00:09:00,VALID,917.796,VALID,0,VALID,100,VALID,0,VALID,19.9016,VALID,76,VALID,0.689135,
2006-02-19, 00:10:00,VALID,917.78,VALID,0,VALID,100,VALID,0,VALID,19.9008,VALID,77,VALID,0.7859,
2006-02-19, 00:11:00,VALID,917.772,VALID,0,VALID,100,VALID,0,VALID,19.8847,VALID,92,VALID,0.827123,
2006-02-19, 00:12:00,VALID,917.749,VALID,0,VALID,100,VALID,-0.0339617,VALID,19.8785,VALID,98,VALID,0.664244,
2006-02-19, 00:13:00,VALID,917.732,VALID,0,VALID,100,VALID,0,VALID,19.8757,VALID,105,VALID,0.520894,
2006-02-19, 00:14:00,VALID,917.71,VALID,0,VALID,100,VALID,-0.0169808,VALID,19.8723,VALID,107,VALID,0.345567,
2006-02-19, 00:15:00,VALID,917.686,VALID,0,VALID,100,VALID,0.0339617,VALID,19.8658,VALID,107,VALID,0.388021,
2006-02-19, 00:16:00,VALID,917.681,VALID,0,VALID,100,VALID,-0.0339617,VALID,19.8752,VALID,107,VALID,0.171697,
2006-02-19, 00:17:00,VALID,917.668,VALID,0,VALID,100,VALID,0.0169808,VALID,19.876,VALID,106,VALID,0.0933866,
2006-02-19, 00:18:00,VALID,917.665,VALID,0,VALID,100,VALID,-0.0169808,VALID,19.8628,VALID,106,VALID,0.00603693,
2006-02-19, 00:19:00,VALID,917.675,VALID,0,VALID,100,VALID,0.0169808,VALID,19.8558,VALID,76,VALID,0.395167,
2006-02-19, 00:20:00,VALID,917.668,VALID,0,VALID,100,VALID,0.0169808,VALID,19.8693,VALID,48,VALID,0.450107,
2006-02-19, 00:21:00,VALID,917.681,VALID,0,VALID,100,VALID,0,VALID,19.8529,VALID,48,VALID,0.404018,
2006-02-19, 00:22:00,VALID,917.693,VALID,0,VALID,100,VALID,0.0169808,VALID,19.8372,VALID,48,VALID,0.0695685,
2006-02-19, 00:23:00,VALID,917.702,VALID,0,VALID,100,VALID,-0.0339617,VALID,19.8173,VALID,48,VALID,0,
2006-02-19, 00:24:00,VALID,917.725,VALID,0,VALID,100,VALID,-0.0169808,VALID,19.8203,VALID,48,VALID,0.000762195,
2006-02-19, 00:25:00,VALID,917.735,VALID,0,VALID,100,VALID,-0.0169808,VALID,19.8108,VALID,48,VALID,0.00355114,
2006-02-19, 00:26:00,VALID,917.76,VALID,0,VALID,100,VALID,0,VALID,19.8106,VALID,48,VALID,0.0319767,
2006-02-19, 00:27:00,VALID,917.772,VALID,0,VALID,100,VALID,0,VALID,19.8011,VALID,48,VALID,0.16875,
2006-02-19, 00:28:00,VALID,917.76,VALID,0,VALID,100,VALID,-0.0169808,VALID,19.7979,VALID,48,VALID,0.248547,
2006-02-19, 00:29:00,VALID,917.763,VALID,0,VALID,100,VALID,0,VALID,19.8014,VALID,48,VALID,0.309659,
2006-02-19, 00:30:00,VALID,917.765,VALID,0,VALID,100,VALID,0,VALID,19.8011,VALID,48,VALID,0.074673,
2006-02-19, 00:31:00,VALID,917.776,VALID,0,VALID,100,VALID,0,VALID,19.7979,VALID,48,VALID,0.187153,
2006-02-19, 00:32:00,VALID,917.768,VALID,0,VALID,100,VALID,0,VALID,19.7982,VALID,48,VALID,0.300114,
2006-02-19, 00:33:00,VALID,917.765,VALID,0,VALID,100,VALID,0,VALID,19.8084,VALID,41,VALID,0.350675,
2006-02-19, 00:34:00,VALID,917.766,VALID,0,VALID,100,VALID,0,VALID,19.8046,VALID,33,VALID,0.300509,
2006-02-19, 00:35:00,VALID,917.742,VALID,0,VALID,100,VALID,0.0339617,VALID,19.8106,VALID,28,VALID,0.051883,
2006-02-19, 00:36:00,VALID,917.739,VALID,0,VALID,100,VALID,0.0339617,VALID,19.83,VALID,28,VALID,0.180596,
2006-02-19, 00:37:00,VALID,917.72,VALID,0,VALID,100,VALID,0,VALID,19.8496,VALID,29,VALID,0.392045,
2006-02-19, 00:38:00,VALID,917.7,VALID,0,VALID,100,VALID,0.0169808,VALID,19.8501,VALID,30,VALID,0.627486,
2006-02-19, 00:39:00,VALID,917.672,VALID,0,VALID,100,VALID,-0.0339617,VALID,19.8663,VALID,34,VALID,0.668048,
2006-02-19, 00:40:00,VALID,917.654,VALID,0,VALID,100,VALID,0.0169808,VALID,19.8464,VALID,34,VALID,0.75327,
2006-02-19, 00:41:00,VALID,917.638,VALID,0,VALID,100,VALID,-0.0169808,VALID,19.8305,VALID,32,VALID,0.76508,
2006-02-19, 00:42:00,VALID,917.629,VALID,0,VALID,100,VALID,0,VALID,19.8337,VALID,25,VALID,0.692073,
2006-02-19, 00:43:00,VALID,917.62,VALID,0,VALID,100,VALID,-0.0169808,VALID,19.8335,VALID,15,VALID,0.719444,
2006-02-19, 00:44:00,VALID,917.603,VALID,0,VALID,100,VALID,-0.0339617,VALID,19.8272,VALID,11,VALID,0.592115,
2006-02-19, 00:45:00,VALID,917.584,VALID,0,VALID,100,VALID,-0.0169808,VALID,19.827,VALID,11,VALID,0.351895,
2006-02-19, 00:46:00,VALID,917.567,VALID,0,VALID,100,VALID,0,VALID,19.8434,VALID,11,VALID,0.408794,
2006-02-19, 00:47:00,VALID,917.551,VALID,0,VALID,100,VALID,0,VALID,19.8434,VALID,11,VALID,0.471227,
2006-02-19, 00:48:00,VALID,917.53,VALID,0,VALID,100,VALID,0.0169808,VALID,19.8596,VALID,12,VALID,0.341442,
2006-02-19, 00:49:00,VALID,917.512,VALID,0,VALID,100,VALID,0.0169808,VALID,19.8558,VALID,12,VALID,0.0759448,
2006-02-19, 00:50:00,VALID,917.495,VALID,0,VALID,100,VALID,-0.0339617,VALID,19.8601,VALID,12,VALID,0.244673,
2006-02-19, 00:51:00,VALID,917.503,VALID,0,VALID,100,VALID,0.0169808,VALID,19.8362,VALID,12,VALID,0.326882,
2006-02-19, 00:52:00,VALID,917.497,VALID,0,VALID,100,VALID,-0.0169808,VALID,19.8531,VALID,13,VALID,0.256696,
2006-02-19, 00:53:00,VALID,917.498,VALID,0,VALID,100,VALID,-0.0169808,VALID,19.8464,VALID,24,VALID,0.355097,
2006-02-19, 00:54:00,VALID,917.505,VALID,0,VALID,100,VALID,-0.0169808,VALID,19.8531,VALID,32,VALID,0.197311,
2006-02-19, 00:55:00,VALID,917.487,VALID,0,VALID,100,VALID,0,VALID,19.8558,VALID,33,VALID,0.0816592,
2006-02-19, 00:56:00,VALID,917.486,VALID,0,VALID,100,VALID,0,VALID,19.8456,VALID,33,VALID,0.262429,
2006-02-19, 00:57:00,VALID,917.476,VALID,0,VALID,100,VALID,0.0169808,VALID,19.8561,VALID,33,VALID,0.158381,
2006-02-19, 00:58:00,VALID,917.467,VALID,0,VALID,100,VALID,0.0679233,VALID,19.8561,VALID,34,VALID,0.167969,
2006-02-19, 00:59:00,VALID,917.453,VALID,0,VALID,100,VALID,-0.0169808,VALID,19.8693,VALID,34,VALID,0.0897569,
2006-02-19, 01:00:00,VALID,917.424,VALID,0,VALID,100,VALID,0.0169808,VALID,19.8792,VALID,34,VALID,0,
2006-02-19, 01:01:00,VALID,917.425,VALID,0,VALID,100,VALID,0,VALID,19.9048,VALID,34,VALID,0,
2006-02-19, 01:02:00,VALID,917.393,VALID,0,VALID,100,VALID,0.0169808,VALID,19.9178,VALID,34,VALID,0.0476017,
2006-02-19, 01:03:00,VALID,917.371,VALID,0,VALID,100,VALID,-0.0169808,VALID,19.9312,VALID,34,VALID,0.206182,
2006-02-19, 01:04:00,VALID,917.354,VALID,0,VALID,100,VALID,0.0169808,VALID,19.9332,VALID,34,VALID,0.395952,
2006-02-19, 01:05:00,VALID,917.332,VALID,0,VALID,100,VALID,0,VALID,19.9436,VALID,17,VALID,0.48383,
2006-02-19, 01:06:00,VALID,917.314,VALID,0,VALID,100,VALID,-0.0169808,VALID,19.9309,VALID,357,VALID,0.398438,
2006-02-19, 01:07:00,VALID,917.305,VALID,0,VALID,100,VALID,-0.0169808,VALID,19.9309,VALID,357,VALID,0.240412,
2006-02-19, 01:08:00,VALID,917.285,VALID,0,VALID,100,VALID,-0.0169808,VALID,19.9115,VALID,357,VALID,0.2234,
2006-02-19, 01:09:00,VALID,917.273,VALID,0,VALID,100,VALID,-0.0169808,VALID,19.9048,VALID,357,VALID,0.201451,
2006-02-19, 01:10:00,VALID,917.242,VALID,0,VALID,100,VALID,-0.0339617,VALID,19.9118,VALID,357,VALID,0.0662287,
2006-02-19, 01:11:00,VALID,917.223,VALID,0,VALID,100,VALID,-0.0169808,VALID,19.918,VALID,357,VALID,0.0218023,
2006-02-19, 01:12:00,VALID,917.207,VALID,0,VALID,100,VALID,0,VALID,19.9083,VALID,357,VALID,0,
2006-02-19, 01:13:00,VALID,917.186,VALID,0,VALID,100,VALID,0,VALID,19.8884,VALID,357,VALID,0,
2006-02-19, 01:14:00,VALID,917.179,VALID,0,VALID,100,VALID,-0.0509425,VALID,19.915,VALID,357,VALID,0,
2006-02-19, 01:15:00,VALID,917.17,VALID,0,VALID,100,VALID,-0.0339617,VALID,19.9242,VALID,357,VALID,0,
2006-02-19, 01:16:00,VALID,917.177,VALID,0,VALID,100,VALID,0,VALID,19.9337,VALID,357,VALID,0,
2006-02-19, 01:17:00,VALID,917.19,VALID,0,VALID,100,VALID,0,VALID,19.9541,VALID,357,VALID,0.009375,
2006-02-19, 01:18:00,VALID,917.193,VALID,0,VALID,100,VALID,-0.0339617,VALID,19.9533,VALID,357,VALID,0.0802734,
2006-02-19, 01:19:00,VALID,917.201,VALID,0,VALID,100,VALID,-0.0509425,VALID,19.9633,VALID,357,VALID,0.397396,
2006-02-19, 01:20:00,VALID,917.209,VALID,0,VALID,100,VALID,-0.0169808,VALID,19.9501,VALID,357,VALID,0.438772,
2006-02-19, 01:21:00,VALID,917.207,VALID,0,VALID,100,VALID,0,VALID,19.9436,VALID,357,VALID,0.38559,
2006-02-19, 01:22:00,VALID,917.205,VALID,0,VALID,100,VALID,-0.0169808,VALID,19.9377,VALID,357,VALID,0.27907,
2006-02-19, 01:23:00,VALID,917.192,VALID,0,VALID,100,VALID,-0.0169808,VALID,19.9409,VALID,357,VALID,0,
2006-02-19, 01:24:00,VALID,917.187,VALID,0,VALID,100,VALID,0,VALID,19.9506,VALID,357,VALID,0,
2006-02-19, 01:25:00,VALID,917.183,VALID,0,VALID,100,VALID,0,VALID,19.9498,VALID,357,VALID,0,
2006-02-19, 01:26:00,VALID,917.168,VALID,0,VALID,100,VALID,0.0169808,VALID,19.9695,VALID,357,VALID,0,
2006-02-19, 01:27:00,VALID,917.158,VALID,0,VALID,100,VALID,-0.0169808,VALID,19.9797,VALID,357,VALID,0,
2006-02-19, 01:28:00,VALID,917.16,VALID,0,VALID,100,VALID,-0.0169808,VALID,19.9824,VALID,357,VALID,0.0507813,
2006-02-19, 01:29:00,VALID,917.162,VALID,0,VALID,100,VALID,0.0169808,VALID,19.9921,VALID,357,VALID,0.133168,
2006-02-19, 01:30:00,VALID,917.157,VALID,0,VALID,100,VALID,0,VALID,19.9824,VALID,357,VALID,0.160666,
2006-02-19, 01:31:00,VALID,917.15,VALID,0,VALID,100,VALID,-0.0169808,VALID,19.9662,VALID,357,VALID,0.205035,
2006-02-19, 01:32:00,VALID,917.14,VALID,0,VALID,100,VALID,-0.0169808,VALID,19.9695,VALID,357,VALID,0.111151,
2006-02-19, 01:33:00,VALID,917.129,VALID,0,VALID,100,VALID,0.0339617,VALID,19.9662,VALID,357,VALID,0.0987216,
2006-02-19, 01:34:00,VALID,917.116,VALID,0,VALID,100,VALID,0,VALID,19.9859,VALID,357,VALID,0.161515,
2006-02-19, 01:35:00,VALID,917.093,VALID,0,VALID,100,VALID,0.0169808,VALID,19.9886,VALID,357,VALID,0.0796875,
2006-02-19, 01:36:00,VALID,917.077,VALID,0,VALID,100,VALID,0,VALID,19.9921,VALID,357,VALID,0,
2006-02-19, 01:37:00,VALID,917.052,VALID,0,VALID,100,VALID,0.0169808,VALID,20.0048,VALID,357,VALID,0,
2006-02-19, 01:38:00,VALID,917.036,VALID,0,VALID,100,VALID,0,VALID,20.0117,VALID,357,VALID,0.0996094,
2006-02-19, 01:39:00,VALID,917.028,VALID,0,VALID,100,VALID,0.0339617,VALID,20.0306,VALID,357,VALID,0.312686,
2006-02-19, 01:40:00,VALID,917.005,VALID,0,VALID,100,VALID,0.0339617,VALID,20.0314,VALID,357,VALID,0.298295,
2006-02-19, 01:41:00,VALID,917.014,VALID,0,VALID,100,VALID,-0.0169808,VALID,20.0277,VALID,360,VALID,0.366824,
2006-02-19, 01:42:00,VALID,916.986,VALID,0,VALID,100,VALID,0,VALID,20.0277,VALID,360,VALID,0.166606,
2006-02-19, 01:43:00,VALID,916.983,VALID,0,VALID,100,VALID,0,VALID,20.0147,VALID,360,VALID,0.0031622,
2006-02-19, 01:44:00,VALID,916.971,VALID,0,VALID,100,VALID,0.0339617,VALID,20.0247,VALID,360,VALID,0.0188953,
2006-02-19, 01:45:00,VALID,916.943,VALID,0,VALID,100,VALID,0.0169808,VALID,20.0239,VALID,360,VALID,0,
2006-02-19, 01:46:00,VALID,916.935,VALID,0,VALID,100,VALID,0.0169808,VALID,20.0274,VALID,360,VALID,0,
2006-02-19, 01:47:00,VALID,916.913,VALID,0,VALID,100,VALID,0.0169808,VALID,20.0471,VALID,360,VALID,0,
2006-02-19, 01:48:00,VALID,916.899,VALID,0,VALID,100,VALID,0.0169808,VALID,20.0406,VALID,360,VALID,0.196837,
2006-02-19, 01:49:00,VALID,916.884,VALID,0,VALID,100,VALID,0.0169808,VALID,20.0371,VALID,360,VALID,0.180469,
2006-02-19, 01:50:00,VALID,916.871,VALID,0,VALID,100,VALID,0,VALID,20.0371,VALID,360,VALID,0.101372,
2006-02-19, 01:51:00,VALID,916.859,VALID,0,VALID,100,VALID,0.0169808,VALID,20.0274,VALID,360,VALID,0.0345982,
2006-02-19, 01:52:00,VALID,916.865,VALID,0,VALID,100,VALID,-0.0169808,VALID,20.0274,VALID,360,VALID,0.0289418,
2006-02-19, 01:53:00,VALID,916.845,VALID,0,VALID,100,VALID,0.0339617,VALID,20.0471,VALID,360,VALID,0.0195313,
2006-02-19, 01:54:00,VALID,916.85,VALID,0,VALID,100,VALID,-0.0339617,VALID,20.0473,VALID,360,VALID,0.208147,
2006-02-19, 01:55:00,VALID,916.85,VALID,0,VALID,100,VALID,-0.0169808,VALID,20.0269,VALID,360,VALID,0.321057,
2006-02-19, 01:56:00,VALID,916.848,VALID,0,VALID,100,VALID,0.0339617,VALID,20.0306,VALID,360,VALID,0.397166,
2006-02-19, 01:57:00,VALID,916.852,VALID,0,VALID,100,VALID,-0.0169808,VALID,20.0306,VALID,360,VALID,0.337391,
2006-02-19, 01:58:00,VALID,916.846,VALID,0,VALID,100,VALID,0.0679233,VALID,20.0438,VALID,357,VALID,0.470567,
2006-02-19, 01:59:00,VALID,916.855,VALID,0,VALID,100,VALID,0,VALID,20.0436,VALID,354,VALID,0.295759,
2006-02-19, 02:00:00,VALID,916.851,VALID,0,VALID,100,VALID,0.0169808,VALID,20.0299,VALID,354,VALID,0.260417,
2006-02-19, 02:01:00,VALID,916.855,VALID,0,VALID,100,VALID,0,VALID,20.0269,VALID,354,VALID,0.0202415,
2006-02-19, 02:02:00,VALID,916.836,VALID,0,VALID,100,VALID,0.0339617,VALID,20.0341,VALID,354,VALID,0,
2006-02-19, 02:03:00,VALID,916.821,VALID,0,VALID,100,VALID,-0.0169808,VALID,20.0376,VALID,354,VALID,0,
2006-02-19, 02:04:00,VALID,916.799,VALID,0,VALID,100,VALID,-0.0169808,VALID,20.0508,VALID,354,VALID,0,
2006-02-19, 02:05:00,VALID,916.785,VALID,0,VALID,100,VALID,0.0169808,VALID,20.0503,VALID,354,VALID,0.0345982,
2006-02-19, 02:06:00,VALID,916.774,VALID,0,VALID,100,VALID,0,VALID,20.05,VALID,354,VALID,0.0122514,
2006-02-19, 02:07:00,VALID,916.766,VALID,0,VALID,100,VALID,0.0169808,VALID,20.05,VALID,354,VALID,0.0988991,
2006-02-19, 02:08:00,VALID,916.773,VALID,0,VALID,100,VALID,-0.0169808,VALID,20.0465,VALID,354,VALID,0.0448718,
2006-02-19, 02:09:00,VALID,916.77,VALID,0,VALID,100,VALID,0.0339617,VALID,20.0465,VALID,354,VALID,0,
2006-02-19, 02:10:00,VALID,916.761,VALID,0,VALID,100,VALID,-0.0169808,VALID,20.053,VALID,354,VALID,0,
2006-02-19, 02:11:00,VALID,916.761,VALID,0,VALID,100,VALID,0.0339617,VALID,20.0597,VALID,354,VALID,0,
2006-02-19, 02:12:00,VALID,916.746,VALID,0,VALID,100,VALID,-0.0169808,VALID,20.0662,VALID,354,VALID,0,
2006-02-19, 02:13:00,VALID,916.731,VALID,0,VALID,100,VALID,0,VALID,20.0627,VALID,354,VALID,0,
2006-02-19, 02:14:00,VALID,916.715,VALID,0,VALID,100,VALID,0.0169808,VALID,20.0664,VALID,354,VALID,0.311198,
2006-02-19, 02:15:00,VALID,916.689,VALID,0,VALID,100,VALID,-0.0169808,VALID,20.0562,VALID,354,VALID,0.258539,
2006-02-19, 02:16:00,VALID,916.679,VALID,0,VALID,100,VALID,0.0169808,VALID,20.05,VALID,354,VALID,0.246875,
2006-02-19, 02:17:00,VALID,916.661,VALID,0,VALID,100,VALID,0.0339617,VALID,20.0374,VALID,354,VALID,0.0265997,
2006-02-19, 02:18:00,VALID,916.642,VALID,0,VALID,100,VALID,0.0339617,VALID,20.014,VALID,354,VALID,0.0174006,
2006-02-19, 02:19:00,VALID,916.623,VALID,0,VALID,100,VALID,-0.0169808,VALID,20.0185,VALID,354,VALID,0,
2006-02-19, 02:20:00,VALID,916.614,VALID,0,VALID,100,VALID,0,VALID,20.0083,VALID,354,VALID,0.119913,
2006-02-19, 02:21:00,VALID,916.586,VALID,0,VALID,100,VALID,0.0169808,VALID,20.0013,VALID,354,VALID,0.0574777,
2006-02-19, 02:22:00,VALID,916.579,VALID,0,VALID,100,VALID,0.0339617,VALID,19.9973,VALID,354,VALID,0.00273437,
2006-02-19, 02:23:00,VALID,916.553,VALID,0,VALID,100,VALID,0.101885,VALID,19.9976,VALID,354,VALID,0,
2006-02-19, 02:24:00,VALID,916.564,VALID,0,VALID,100,VALID,0.118866,VALID,19.9737,VALID,355,VALID,0.0226935,
2006-02-19, 02:25:00,VALID,916.557,VALID,0,VALID,100,VALID,0.0849042,VALID,19.9906,VALID,1,VALID,0.303571,
2006-02-19, 02:26:00,VALID,916.54,VALID,0,VALID,100,VALID,0.101885,VALID,20.0038,VALID,5,VALID,0.186435,
2006-02-19, 02:27:00,VALID,916.542,VALID,0,VALID,100,VALID,0.118866,VALID,19.9906,VALID,76,VALID,0.523958,
2006-02-19, 02:28:00,VALID,916.55,VALID,0,VALID,100,VALID,0.0849042,VALID,19.9709,VALID,113,VALID,0.695503,
2006-02-19, 02:29:00,VALID,916.538,VALID,0,VALID,100,VALID,0.0849042,VALID,19.9682,VALID,116,VALID,0.800781,
2006-02-19, 02:30:00,VALID,916.524,VALID,0,VALID,100,VALID,0.118866,VALID,19.968,VALID,122,VALID,0.616356,
2006-02-19, 02:31:00,VALID,916.498,VALID,0,VALID,100,VALID,0.101885,VALID,19.9486,VALID,125,VALID,0.380814,
2006-02-19, 02:32:00,VALID,916.475,VALID,0,VALID,100,VALID,0.135847,VALID,19.9292,VALID,125,VALID,0.56593,
2006-02-19, 02:33:00,VALID,916.448,VALID,0,VALID,100,VALID,0.0849042,VALID,19.9031,VALID,139,VALID,0.384084,
2006-02-19, 02:34:00,VALID,916.422,VALID,0,VALID,100,VALID,0.101885,VALID,19.9003,VALID,139,VALID,0.521289,
2006-02-19, 02:35:00,VALID,916.428,VALID,0,VALID,100,VALID,0.118866,VALID,19.8839,VALID,140,VALID,0.689931,
2006-02-19, 02:36:00,VALID,916.432,VALID,0,VALID,100,VALID,0.0849042,VALID,19.8648,VALID,131,VALID,0.596591,
2006-02-19, 02:37:00,VALID,916.454,VALID,0,VALID,100,VALID,0.0509425,VALID,19.8424,VALID,121,VALID,1.1542,
2006-02-19, 02:38:00,VALID,916.478,VALID,0,VALID,100,VALID,-0.0169808,VALID,19.8501,VALID,117,VALID,1.44017,
2006-02-19, 02:39:00,VALID,916.498,VALID,0,VALID,100,VALID,0,VALID,19.8402,VALID,120,VALID,1.14506,
2006-02-19, 02:40:00,VALID,916.51,VALID,0,VALID,100,VALID,-0.0169808,VALID,19.834,VALID,125,VALID,1.03888,
2006-02-19, 02:41:00,VALID,916.518,VALID,0,VALID,100,VALID,0,VALID,19.8307,VALID,139,VALID,0.940589,
2006-02-19, 02:42:00,VALID,916.507,VALID,0,VALID,100,VALID,0.0169808,VALID,19.8342,VALID,156,VALID,0.770774,
2006-02-19, 02:43:00,VALID,916.505,VALID,0,VALID,100,VALID,-0.0339617,VALID,19.8275,VALID,160,VALID,0.690358,
2006-02-19, 02:44:00,VALID,916.499,VALID,0,VALID,100,VALID,0,VALID,19.8208,VALID,155,VALID,0.815104,
2006-02-19, 02:45:00,VALID,916.482,VALID,0,VALID,100,VALID,-0.0169808,VALID,19.8208,VALID,153,VALID,0.670015,
2006-02-19, 02:46:00,VALID,916.471,VALID,0,VALID,100,VALID,-0.0169808,VALID,19.8205,VALID,154,VALID,0.466667,
2006-02-19, 02:47:00,VALID,916.457,VALID,0,VALID,100,VALID,0,VALID,19.8345,VALID,155,VALID,0.401389,
2006-02-19, 02:48:00,VALID,916.443,VALID,0,VALID,100,VALID,0,VALID,19.8342,VALID,162,VALID,0.286932,
2006-02-19, 02:49:00,VALID,916.428,VALID,0,VALID,100,VALID,-0.0169808,VALID,19.8374,VALID,162,VALID,0.248224,
2006-02-19, 02:50:00,VALID,916.415,VALID,0,VALID,100,VALID,-0.0169808,VALID,19.8205,VALID,162,VALID,0.360119,
2006-02-19, 02:51:00,VALID,916.416,VALID,0,VALID,100,VALID,-0.0509425,VALID,19.8245,VALID,162,VALID,0.599609,
2006-02-19, 02:52:00,VALID,916.398,VALID,0,VALID,100,VALID,0,VALID,19.8176,VALID,162,VALID,0.65407,
2006-02-19, 02:53:00,VALID,916.408,VALID,0,VALID,100,VALID,0,VALID,19.8116,VALID,162,VALID,0.614281,
2006-02-19, 02:54:00,VALID,916.401,VALID,0,VALID,100,VALID,0,VALID,19.7984,VALID,145,VALID,0.734885,
2006-02-19, 02:55:00,VALID,916.424,VALID,0,VALID,100,VALID,0,VALID,19.7949,VALID,136,VALID,0.693266,
2006-02-19, 02:56:00,VALID,916.445,VALID,0,VALID,100,VALID,-0.0169808,VALID,19.7753,VALID,122,VALID,0.627046,
2006-02-19, 02:57:00,VALID,916.457,VALID,0,VALID,100,VALID,0.0169808,VALID,19.7691,VALID,111,VALID,0.8375,
2006-02-19, 02:58:00,VALID,916.475,VALID,0,VALID,100,VALID,0.0169808,VALID,19.7763,VALID,105,VALID,0.671875,
2006-02-19, 02:59:00,VALID,916.478,VALID,0,VALID,100,VALID,0.0169808,VALID,19.7626,VALID,121,VALID,1.15104,
2006-02-19, 03:00:00,VALID,916.477,VALID,0,VALID,100,VALID,0,VALID,19.7755,VALID,117,VALID,1.04727,
2006-02-19, 03:01:00,VALID,916.472,VALID,0,VALID,100,VALID,0,VALID,19.779,VALID,118,VALID,1.02668,
2006-02-19, 03:02:00,VALID,916.468,VALID,0,VALID,100,VALID,0,VALID,19.7857,VALID,122,VALID,1.17242,
2006-02-19, 03:03:00,VALID,916.475,VALID,0,VALID,100,VALID,0,VALID,19.7822,VALID,128,VALID,1.35437,
2006-02-19, 03:04:00,VALID,916.473,VALID,0,VALID,100,VALID,0.0169808,VALID,19.7982,VALID,123,VALID,0.99375,
2006-02-19, 03:05:00,VALID,916.464,VALID,0,VALID,100,VALID,0,VALID,19.8178,VALID,111,VALID,1.26908,
2006-02-19, 03:06:00,VALID,916.48,VALID,0,VALID,100,VALID,-0.0169808,VALID,19.824,VALID,106,VALID,0.937881,
2006-02-19, 03:07:00,VALID,916.476,VALID,0,VALID,100,VALID,0.0339617,VALID,19.8407,VALID,91,VALID,1.04925,
2006-02-19, 03:08:00,VALID,916.477,VALID,0,VALID,100,VALID,0,VALID,19.8272,VALID,77,VALID,0.958984,
2006-02-19, 03:09:00,VALID,916.473,VALID,0,VALID,100,VALID,0.0169808,VALID,19.8402,VALID,82,VALID,1.11772,
2006-02-19, 03:10:00,VALID,916.466,VALID,0,VALID,100,VALID,0,VALID,19.8337,VALID,87,VALID,1.13646,
2006-02-19, 03:11:00,VALID,916.447,VALID,0,VALID,100,VALID,0,VALID,19.8407,VALID,71,VALID,1.25195,
2006-02-19, 03:12:00,VALID,916.441,VALID,0,VALID,100,VALID,-0.0169808,VALID,19.8432,VALID,47,VALID,0.421044,
2006-02-19, 03:13:00,VALID,916.423,VALID,0,VALID,100,VALID,0.0169808,VALID,19.8536,VALID,35,VALID,0.558408,
2006-02-19, 03:14:00,VALID,916.426,VALID,0,VALID,100,VALID,0.0169808,VALID,19.8539,VALID,38,VALID,0.628452,
2006-02-19, 03:15:00,VALID,916.424,VALID,0,VALID,100,VALID,0.0169808,VALID,19.8499,VALID,42,VALID,0.75436,
2006-02-19, 03:16:00,VALID,916.415,VALID,0,VALID,100,VALID,0,VALID,19.8668,VALID,40,VALID,0.954268,
2006-02-19, 03:17:00,VALID,916.407,VALID,0,VALID,100,VALID,-0.0169808,VALID,19.8566,VALID,48,VALID,0.57049,
2006-02-19, 03:18:00,VALID,916.381,VALID,0,VALID,100,VALID,0,VALID,19.8536,VALID,45,VALID,0.681593,
2006-02-19, 03:19:00,VALID,916.357,VALID,0,VALID,100,VALID,0,VALID,19.8536,VALID,43,VALID,0.528516,
2006-02-19, 03:20:00,VALID,916.334,VALID,0,VALID,100,VALID,0.0169808,VALID,19.8504,VALID,57,VALID,0.570685,
2006-02-19, 03:21:00,VALID,916.324,VALID,0,VALID,100,VALID,0.0169808,VALID,19.8364,VALID,74,VALID,1.06188,
2006-02-19, 03:22:00,VALID,916.315,VALID,0,VALID,100,VALID,0.0169808,VALID,19.8404,VALID,80,VALID,0.657522,
2006-02-19, 03:23:00,VALID,916.294,VALID,0,VALID,100,VALID,-0.0169808,VALID,19.8275,VALID,84,VALID,0.469122,
2006-02-19, 03:24:00,VALID,916.288,VALID,0,VALID,100,VALID,0.0169808,VALID,19.8074,VALID,97,VALID,0.649581,
2006-02-19, 03:25:00,VALID,916.266,VALID,0,VALID,100,VALID,0.0509425,VALID,19.8178,VALID,98,VALID,0.388765,
2006-02-19, 03:26:00,VALID,916.257,VALID,0,VALID,100,VALID,0.0169808,VALID,19.8049,VALID,98,VALID,0.466025,
2006-02-19, 03:27:00,VALID,916.244,VALID,0,VALID,100,VALID,0,VALID,19.785,VALID,98,VALID,0.192649,
2006-02-19, 03:28:00,VALID,916.245,VALID,0,VALID,100,VALID,0,VALID,19.7919,VALID,98,VALID,0.393532,
2006-02-19, 03:29:00,VALID,916.23,VALID,0,VALID,100,VALID,-0.0169808,VALID,19.7919,VALID,98,VALID,0.37934,
2006-02-19, 03:30:00,VALID,916.228,VALID,0,VALID,100,VALID,0,VALID,19.789,VALID,100,VALID,0.462209,
2006-02-19, 03:31:00,VALID,916.22,VALID,0,VALID,100,VALID,-0.0339617,VALID,19.7857,VALID,103,VALID,0.553267,
2006-02-19, 03:32:00,VALID,916.217,VALID,0,VALID,100,VALID,-0.0169808,VALID,19.7696,VALID,103,VALID,0.752287,
2006-02-19, 03:33:00,VALID,916.212,VALID,0,VALID,100,VALID,-0.0339617,VALID,19.7534,VALID,103,VALID,0.788542,
2006-02-19, 03:34:00,VALID,916.181,VALID,0,VALID,100,VALID,0,VALID,19.737,VALID,103,VALID,0.724964,
2006-02-19, 03:35:00,VALID,916.168,VALID,0,VALID,100,VALID,0.0169808,VALID,19.7238,VALID,103,VALID,0.769055,
2006-02-19, 03:36:00,VALID,916.142,VALID,0,VALID,100,VALID,-0.0169808,VALID,19.7208,VALID,99,VALID,0.746366,
2006-02-19, 03:37:00,VALID,916.124,VALID,0,VALID,100,VALID,0,VALID,19.7248,VALID,94,VALID,0.68314,
2006-02-19, 03:38:00,VALID,916.104,VALID,0,VALID,100,VALID,0.0169808,VALID,19.7009,VALID,99,VALID,0.69184,
2006-02-19, 03:39:00,VALID,916.091,VALID,0,VALID,100,VALID,0,VALID,19.6982,VALID,105,VALID,0.777521,
2006-02-19, 03:40:00,VALID,916.088,VALID,0,VALID,100,VALID,0.0169808,VALID,19.6818,VALID,113,VALID,0.734375,
2006-02-19, 03:41:00,VALID,916.082,VALID,0,VALID,100,VALID,0.0169808,VALID,19.6791,VALID,110,VALID,0.664993,
2006-02-19, 03:42:00,VALID,916.084,VALID,0,VALID,100,VALID,0.0339617,VALID,19.6753,VALID,108,VALID,0.729421,
2006-02-19, 03:43:00,VALID,916.081,VALID,0,VALID,100,VALID,0.0339617,VALID,19.6855,VALID,101,VALID,0.711124,
2006-02-19, 03:44:00,VALID,916.087,VALID,0,VALID,100,VALID,0,VALID,19.6791,VALID,101,VALID,0.675495,
2006-02-19, 03:45:00,VALID,916.074,VALID,0,VALID,100,VALID,0,VALID,19.6691,VALID,119,VALID,0.723895,